Location: Saluda
(35.2377°N, 82.3468°W)
Time: 19:31:55
(UTC+00:00)

Courier 1B Rocket - Pass Details

Date: 08 October 2022
Orbit: 920 x 1202 km, 28.3° (Epoch: 01 December)

Event Time Altitude Azimuth Distance (km) Brightness Sun altitude
Rises 21:25:20 0° 233° (SW) 4,017 9.7 18.5°
Reaches altitude 10° 21:28:30 10° 224° (SW) 3,021 9.0 17.9°
Maximum altitude 21:35:00 33° 163° (SSE) 1,741 6.6 16.7°
Drops below altitude 10° 21:41:06 10° 102° (ESE) 2,844 7.0 15.5°
Sets 21:44:00 0° 93° (E) 3,752 7.5 15.0°
